VOE53TN LFRS-LFKC

Flight info

Callsign VOE53TN
Flight time 1h 22m
Altitude 37000
Route LUGEN UM184 TUPAR DCT DIDRU DCT ADATU DCT LERGA DCT TOZOT DCT OTROT DCT RETNO DCT KOLON DCT NARTI UP991 NIRDO
Aircraft A319/M-SDE3FGHIRWY/LB1

Departure

Time 2026-04-28 17:52
Airport Nantes Atlantique Airport (LFRS)

Arrival

Time 2026-04-28 19:15
Airport Calvi Sainte Catherine Airport (LFKC)
Time Latitude Longitude Altitude Speed Heading
2026-04-28 17:37 47.15689 -1.60210 83 ft 0 kts 35°
2026-04-28 17:43 47.15680 -1.60221 83 ft 2 kts 35°
2026-04-28 17:43 47.15667 -1.60234 83 ft 2 kts 35°
2026-04-28 17:43 47.15659 -1.60242 83 ft 2 kts 34°
2026-04-28 17:43 47.15646 -1.60251 83 ft 2 kts 13°
2026-04-28 17:44 47.15631 -1.60254 84 ft 2 kts 356°
2026-04-28 17:44 47.15617 -1.60250 84 ft 2 kts 339°
2026-04-28 17:44 47.15603 -1.60240 83 ft 2 kts 322°
2026-04-28 17:44 47.15593 -1.60224 83 ft 2 kts 305°
2026-04-28 17:45 47.15588 -1.60214 83 ft 1 kts 295°
2026-04-28 17:45 47.15587 -1.60209 83 ft 0 kts 296°
2026-04-28 17:47 47.15588 -1.60213 83 ft 1 kts 296°
2026-04-28 17:47 47.15599 -1.60244 83 ft 5 kts 297°
2026-04-28 17:47 47.15625 -1.60300 83 ft 8 kts 316°
2026-04-28 17:47 47.15656 -1.60343 83 ft 10 kts 317°
2026-04-28 17:48 47.15719 -1.60469 83 ft 13 kts 262°
2026-04-28 17:48 47.15642 -1.60559 83 ft 16 kts 207°
2026-04-28 17:48 47.15537 -1.60639 83 ft 18 kts 208°
2026-04-28 17:48 47.15419 -1.60728 85 ft 19 kts 206°
2026-04-28 17:49 47.15301 -1.60820 87 ft 20 kts 209°
2026-04-28 17:49 47.15169 -1.60915 87 ft 21 kts 208°
2026-04-28 17:49 47.15033 -1.61022 87 ft 23 kts 207°
2026-04-28 17:49 47.14889 -1.61133 87 ft 24 kts 205°
2026-04-28 17:50 47.14734 -1.61249 85 ft 25 kts 207°
2026-04-28 17:50 47.14569 -1.61376 82 ft 27 kts 206°
2026-04-28 17:50 47.14391 -1.61511 78 ft 29 kts 207°
2026-04-28 17:50 47.14225 -1.61637 75 ft 14 kts 207°
2026-04-28 17:51 47.14166 -1.61711 74 ft 8 kts 245°
2026-04-28 17:51 47.14143 -1.61805 74 ft 10 kts 256°
2026-04-28 17:51 47.14159 -1.61910 74 ft 11 kts 312°
2026-04-28 17:51 47.14230 -1.61901 75 ft 11 kts 28°
2026-04-28 17:52 47.14331 -1.61823 77 ft 37 kts 27°
2026-04-28 17:52 47.14794 -1.61468 84 ft 110 kts 26°
2026-04-28 17:52 47.16714 -1.59980 715 ft 172 kts 32°
2026-04-28 17:53 47.17443 -1.58742 1586 ft 170 kts 75°
2026-04-28 17:53 47.17292 -1.57039 2384 ft 184 kts 108°
2026-04-28 17:53 47.16460 -1.55466 3004 ft 211 kts 139°
2026-04-28 17:53 47.15101 -1.54445 3653 ft 232 kts 152°
2026-04-28 17:54 47.13568 -1.53550 4309 ft 248 kts 153°
2026-04-28 17:54 47.11930 -1.52540 5007 ft 263 kts 153°
2026-04-28 17:54 47.10229 -1.51439 5824 ft 273 kts 153°
2026-04-28 17:54 47.08510 -1.50263 6785 ft 275 kts 152°
2026-04-28 17:55 47.06801 -1.49049 7754 ft 277 kts 152°
2026-04-28 17:55 47.05193 -1.47547 8719 ft 279 kts 134°
2026-04-28 17:55 47.03891 -1.45496 9649 ft 280 kts 134°
2026-04-28 17:55 47.02497 -1.43470 10446 ft 287 kts 137°
2026-04-28 17:56 47.01013 -1.41438 10989 ft 303 kts 138°
2026-04-28 17:56 46.99412 -1.39310 11419 ft 321 kts 139°
2026-04-28 17:56 46.97711 -1.37075 11874 ft 337 kts 139°
2026-04-28 17:56 46.95942 -1.34761 12596 ft 343 kts 140°
2026-04-28 17:57 46.94154 -1.32428 13392 ft 347 kts 140°
2026-04-28 17:57 46.92370 -1.30104 14168 ft 350 kts 140°
2026-04-28 17:57 46.90545 -1.27730 14885 ft 354 kts 141°
2026-04-28 17:57 46.88714 -1.25349 15594 ft 358 kts 141°
2026-04-28 17:58 46.86841 -1.22917 16275 ft 362 kts 142°
2026-04-28 17:58 46.84974 -1.20501 16943 ft 365 kts 142°
2026-04-28 17:58 46.83054 -1.18014 17614 ft 368 kts 143°
2026-04-28 17:58 46.81158 -1.15552 18236 ft 371 kts 143°
2026-04-28 17:59 46.79215 -1.13033 18873 ft 375 kts 143°
2026-04-28 17:59 46.77258 -1.10498 19438 ft 380 kts 144°
2026-04-28 17:59 46.75297 -1.07965 20001 ft 384 kts 144°
2026-04-28 17:59 46.73297 -1.05381 20577 ft 387 kts 144°
2026-04-28 18:00 46.71269 -1.02760 21140 ft 391 kts 144°
2026-04-28 18:00 46.69247 -1.00153 21656 ft 395 kts 144°
2026-04-28 18:00 46.67164 -0.97470 22186 ft 399 kts 144°
2026-04-28 18:00 46.65106 -0.94819 22719 ft 401 kts 144°
2026-04-28 18:01 46.63015 -0.92129 23232 ft 405 kts 144°
2026-04-28 18:01 46.60877 -0.89383 23752 ft 408 kts 145°
2026-04-28 18:01 46.58757 -0.86664 24224 ft 411 kts 145°
2026-04-28 18:01 46.56629 -0.83927 24671 ft 414 kts 145°
2026-04-28 18:02 46.54470 -0.81142 25117 ft 417 kts 145°
2026-04-28 18:02 46.52306 -0.78348 25559 ft 420 kts 145°
2026-04-28 18:02 46.50116 -0.75528 25981 ft 423 kts 145°
2026-04-28 18:02 46.47899 -0.72676 26379 ft 427 kts 146°
2026-04-28 18:03 46.45702 -0.69830 26785 ft 431 kts 143°
2026-04-28 18:03 46.43692 -0.66496 27177 ft 444 kts 133°
2026-04-28 18:03 46.42109 -0.62623 27553 ft 458 kts 121°
2026-04-28 18:03 46.40946 -0.58262 27926 ft 466 kts 115°
2026-04-28 18:04 46.39934 -0.53843 28279 ft 470 kts 114°
2026-04-28 18:04 46.38924 -0.49327 28655 ft 473 kts 114°
2026-04-28 18:04 46.37900 -0.44773 29021 ft 475 kts 114°
2026-04-28 18:04 46.36870 -0.40238 29391 ft 477 kts 114°
2026-04-28 18:05 46.35820 -0.35675 29740 ft 480 kts 114°
2026-04-28 18:05 46.35120 -0.32649 29974 ft 481 kts 115°
2026-04-28 18:05 46.33716 -0.26607 30571 ft 479 kts 115°
2026-04-28 18:05 46.32650 -0.22048 31024 ft 477 kts 115°
2026-04-28 18:06 46.31589 -0.17519 31453 ft 476 kts 115°
2026-04-28 18:06 46.30523 -0.12979 31873 ft 475 kts 115°
2026-04-28 18:06 46.29462 -0.08476 32280 ft 475 kts 115°
2026-04-28 18:06 46.28412 -0.04026 32637 ft 475 kts 115°
2026-04-28 18:07 46.27339 0.00510 33034 ft 474 kts 115°
2026-04-28 18:07 46.26273 0.05004 33408 ft 473 kts 115°
2026-04-28 18:07 46.25214 0.09467 33762 ft 473 kts 114°
2026-04-28 18:07 46.24159 0.13904 34095 ft 473 kts 114°
2026-04-28 18:08 46.23095 0.18366 34426 ft 472 kts 114°
2026-04-28 18:08 46.22022 0.22845 34729 ft 471 kts 114°
2026-04-28 18:08 46.20955 0.27310 35055 ft 469 kts 114°
2026-04-28 18:08 46.19901 0.31701 35348 ft 468 kts 114°
2026-04-28 18:09 46.18844 0.36098 35592 ft 468 kts 113°
2026-04-28 18:09 46.17778 0.40525 35800 ft 468 kts 113°
2026-04-28 18:09 46.16714 0.44935 35960 ft 468 kts 113°
2026-04-28 18:09 46.15648 0.49350 36145 ft 469 kts 113°
2026-04-28 18:10 46.14581 0.53756 36386 ft 469 kts 113°
2026-04-28 18:10 46.13506 0.58182 36571 ft 470 kts 113°
2026-04-28 18:10 46.12425 0.62631 36760 ft 471 kts 112°
2026-04-28 18:10 46.11342 0.67078 36923 ft 471 kts 114°
2026-04-28 18:11 46.09166 0.75989 36918 ft 472 kts 113°
2026-04-28 18:11 46.06985 0.84882 36936 ft 472 kts 113°
2026-04-28 18:12 46.04798 0.93759 36948 ft 472 kts 114°
2026-04-28 18:12 46.02603 1.02641 36954 ft 472 kts 113°
2026-04-28 18:13 46.00407 1.11484 36956 ft 472 kts 113°
2026-04-28 18:13 45.98210 1.20300 36962 ft 472 kts 113°
2026-04-28 18:14 45.95997 1.29150 36943 ft 471 kts 113°
2026-04-28 18:14 45.93772 1.38010 36946 ft 471 kts 113°
2026-04-28 18:15 45.91560 1.46784 36961 ft 471 kts 113°
2026-04-28 18:15 45.89325 1.55621 36949 ft 471 kts 113°
2026-04-28 18:16 45.87084 1.64440 36941 ft 471 kts 113°
2026-04-28 18:16 45.84844 1.73227 36973 ft 470 kts 114°
2026-04-28 18:17 45.82607 1.81961 36987 ft 470 kts 114°
2026-04-28 18:17 45.80354 1.90726 36948 ft 470 kts 114°
2026-04-28 18:18 45.78097 1.99473 36988 ft 469 kts 114°
2026-04-28 18:18 45.76215 2.06748 36986 ft 470 kts 114°
2026-04-28 18:19 45.73566 2.16940 36982 ft 470 kts 114°
2026-04-28 18:19 45.71294 2.25647 36963 ft 470 kts 114°
2026-04-28 18:20 45.69000 2.34414 36941 ft 471 kts 114°
2026-04-28 18:20 45.66710 2.43122 36958 ft 471 kts 114°
2026-04-28 18:21 45.64400 2.51877 36971 ft 471 kts 114°
2026-04-28 18:21 45.62097 2.60572 36968 ft 471 kts 114°
2026-04-28 18:22 45.59776 2.69308 36974 ft 471 kts 114°
2026-04-28 18:22 45.57460 2.77992 36976 ft 470 kts 114°
2026-04-28 18:23 45.55140 2.86656 36981 ft 470 kts 114°
2026-04-28 18:23 45.52805 2.95348 36978 ft 471 kts 114°
2026-04-28 18:24 45.50853 3.02586 36976 ft 471 kts 114°
2026-04-28 18:24 45.48117 3.12695 36987 ft 471 kts 114°
2026-04-28 18:25 45.45748 3.21418 36982 ft 472 kts 114°
2026-04-28 18:26 45.42198 3.34427 36984 ft 472 kts 114°
2026-04-28 18:26 45.39824 3.43084 36988 ft 472 kts 114°
2026-04-28 18:27 45.37439 3.51753 36996 ft 472 kts 114°
2026-04-28 18:27 45.35057 3.60385 36997 ft 472 kts 114°
2026-04-28 18:28 45.32652 3.69059 37005 ft 473 kts 114°
2026-04-28 18:28 45.30248 3.77708 37008 ft 472 kts 114°
2026-04-28 18:29 45.27837 3.86348 37003 ft 472 kts 115°
2026-04-28 18:29 45.25412 3.95005 37001 ft 472 kts 114°
2026-04-28 18:30 45.22978 4.03665 37005 ft 473 kts 115°
2026-04-28 18:30 45.20558 4.12245 37002 ft 473 kts 115°
2026-04-28 18:31 45.18122 4.20849 37001 ft 472 kts 114°
2026-04-28 18:31 45.15667 4.29486 36998 ft 473 kts 114°
2026-04-28 18:32 45.13184 4.38020 37004 ft 472 kts 117°
2026-04-28 18:32 45.10144 4.46223 37000 ft 469 kts 124°
2026-04-28 18:33 45.06452 4.53783 37004 ft 467 kts 130°
2026-04-28 18:33 45.02519 4.61056 37007 ft 467 kts 130°
2026-04-28 18:34 44.98603 4.68291 36996 ft 466 kts 131°
2026-04-28 18:34 44.94669 4.75563 36998 ft 466 kts 131°
2026-04-28 18:35 44.90758 4.82782 36993 ft 466 kts 131°
2026-04-28 18:35 44.86822 4.90029 36999 ft 466 kts 130°
2026-04-28 18:36 44.82869 4.97293 36997 ft 467 kts 130°
2026-04-28 18:36 44.78917 5.04538 36997 ft 467 kts 130°
2026-04-28 18:37 44.74987 5.11723 36997 ft 467 kts 130°
2026-04-28 18:37 44.71046 5.18908 36997 ft 466 kts 130°
2026-04-28 18:38 44.67092 5.26101 37004 ft 465 kts 130°
2026-04-28 18:38 44.63127 5.33295 37015 ft 466 kts 130°
2026-04-28 18:39 44.59188 5.40423 37023 ft 466 kts 130°
2026-04-28 18:39 44.55207 5.47613 37033 ft 467 kts 130°
2026-04-28 18:40 44.51225 5.54785 37043 ft 467 kts 130°
2026-04-28 18:40 44.47261 5.61905 37041 ft 466 kts 130°
2026-04-28 18:41 44.43287 5.69028 37034 ft 466 kts 131°
2026-04-28 18:41 44.39297 5.76158 37035 ft 466 kts 131°
2026-04-28 18:42 44.35298 5.83286 37035 ft 465 kts 131°
2026-04-28 18:42 44.31328 5.90351 37043 ft 466 kts 131°
2026-04-28 18:43 44.27327 5.97449 37039 ft 466 kts 131°
2026-04-28 18:43 44.23333 6.04520 37040 ft 466 kts 131°
2026-04-28 18:44 44.19327 6.11592 37043 ft 466 kts 131°
2026-04-28 18:44 44.13313 6.22180 37041 ft 466 kts 131°
2026-04-28 18:45 44.09304 6.29217 37039 ft 466 kts 130°
2026-04-28 18:45 44.05286 6.36252 37040 ft 465 kts 130°
2026-04-28 18:46 44.01261 6.43286 37036 ft 465 kts 130°
2026-04-28 18:46 43.97253 6.50272 37031 ft 466 kts 131°
2026-04-28 18:47 43.93223 6.57272 37032 ft 466 kts 131°
2026-04-28 18:47 43.89171 6.64294 37028 ft 466 kts 130°
2026-04-28 18:48 43.87162 6.67772 36833 ft 466 kts 131°
2026-04-28 18:48 43.85132 6.71281 36541 ft 463 kts 131°
2026-04-28 18:48 43.83149 6.74707 36247 ft 460 kts 131°
2026-04-28 18:48 43.81161 6.78136 35863 ft 456 kts 131°
2026-04-28 18:49 43.79182 6.81544 35362 ft 455 kts 131°
2026-04-28 18:49 43.77875 6.83792 34985 ft 455 kts 131°
2026-04-28 18:49 43.75241 6.88318 34118 ft 456 kts 131°
2026-04-28 18:49 43.73251 6.91730 33392 ft 457 kts 131°
2026-04-28 18:50 43.71244 6.95170 32663 ft 458 kts 131°
2026-04-28 18:50 43.69273 6.98546 31942 ft 458 kts 131°
2026-04-28 18:50 43.67262 7.01985 31212 ft 458 kts 131°
2026-04-28 18:50 43.65294 7.05349 30474 ft 459 kts 131°
2026-04-28 18:51 43.63279 7.08788 29715 ft 459 kts 131°
2026-04-28 18:51 43.61288 7.12182 29172 ft 455 kts 131°
2026-04-28 18:51 43.59320 7.15531 28710 ft 452 kts 131°
2026-04-28 18:51 43.57356 7.18883 28229 ft 449 kts 130°
2026-04-28 18:52 43.55542 7.22369 27743 ft 446 kts 124°
2026-04-28 18:52 43.53964 7.26049 27248 ft 444 kts 119°
2026-04-28 18:52 43.52639 7.29816 26776 ft 441 kts 116°
2026-04-28 18:52 43.51375 7.33662 26288 ft 437 kts 115°
2026-04-28 18:53 43.50150 7.37431 25813 ft 433 kts 115°
2026-04-28 18:53 43.48920 7.41202 25319 ft 429 kts 116°
2026-04-28 18:53 43.47713 7.44889 24830 ft 426 kts 116°
2026-04-28 18:53 43.46500 7.48579 24326 ft 422 kts 116°
2026-04-28 18:54 43.45301 7.52208 23836 ft 419 kts 116°
2026-04-28 18:54 43.44109 7.55813 23356 ft 415 kts 116°
2026-04-28 18:54 43.42918 7.59402 22866 ft 411 kts 116°
2026-04-28 18:54 43.41731 7.62974 22382 ft 408 kts 116°
2026-04-28 18:55 43.40568 7.66469 21903 ft 404 kts 117°
2026-04-28 18:55 43.39634 7.69273 21521 ft 401 kts 117°
2026-04-28 18:55 43.38630 7.72283 21125 ft 398 kts 117°
2026-04-28 18:56 43.37473 7.75749 20655 ft 395 kts 117°
2026-04-28 18:56 43.36340 7.79136 20199 ft 392 kts 117°
2026-04-28 18:56 43.35209 7.82517 19734 ft 390 kts 117°
2026-04-28 18:56 43.34085 7.85869 19275 ft 387 kts 117°
2026-04-28 18:57 43.32968 7.89200 18827 ft 384 kts 116°
2026-04-28 18:57 43.31857 7.92505 18377 ft 382 kts 116°
2026-04-28 18:57 43.30751 7.95794 17910 ft 380 kts 116°
2026-04-28 18:57 43.29641 7.99088 17455 ft 378 kts 116°
2026-04-28 18:58 43.28545 8.02334 17002 ft 376 kts 116°
2026-04-28 18:58 43.27465 8.05532 16552 ft 374 kts 116°
2026-04-28 18:58 43.26369 8.08774 16089 ft 372 kts 116°
2026-04-28 18:58 43.25287 8.11971 15629 ft 370 kts 116°
2026-04-28 18:59 43.24739 8.13589 15392 ft 369 kts 116°
2026-04-28 18:59 43.24273 8.14968 15182 ft 369 kts 116°
2026-04-28 18:59 43.23205 8.18120 14726 ft 367 kts 116°
2026-04-28 18:59 43.22535 8.20096 14444 ft 365 kts 116°
2026-04-28 19:00 43.22454 8.20334 14403 ft 365 kts 116°
2026-04-28 19:00 43.21393 8.23457 13955 ft 362 kts 116°
2026-04-28 19:00 43.20330 8.26586 13514 ft 359 kts 115°
2026-04-28 19:00 43.19281 8.29669 13069 ft 357 kts 116°
2026-04-28 19:01 43.18241 8.32715 12622 ft 354 kts 116°
2026-04-28 19:01 43.17199 8.35764 12169 ft 351 kts 116°
2026-04-28 19:01 43.16184 8.38737 11725 ft 348 kts 115°
2026-04-28 19:01 43.15140 8.41705 11278 ft 344 kts 118°
2026-04-28 19:02 43.13948 8.44526 10840 ft 340 kts 123°
2026-04-28 19:02 43.12613 8.47148 10517 ft 331 kts 127°
2026-04-28 19:02 43.11294 8.49601 10375 ft 317 kts 127°
2026-04-28 19:02 43.10001 8.51989 10236 ft 304 kts 127°
2026-04-28 19:03 43.08770 8.54263 10096 ft 293 kts 127°
2026-04-28 19:03 43.07589 8.56451 9922 ft 283 kts 127°
2026-04-28 19:03 43.06423 8.58610 9553 ft 282 kts 126°
2026-04-28 19:03 43.05250 8.60781 9193 ft 281 kts 126°
2026-04-28 19:04 43.04104 8.62906 8837 ft 279 kts 126°
2026-04-28 19:04 43.02953 8.65040 8498 ft 277 kts 127°
2026-04-28 19:04 43.01815 8.67143 8159 ft 275 kts 127°
2026-04-28 19:04 43.00689 8.69220 7805 ft 273 kts 127°
2026-04-28 19:05 42.99565 8.71294 7291 ft 272 kts 126°
2026-04-28 19:05 42.98453 8.73343 6810 ft 268 kts 126°
2026-04-28 19:05 42.97361 8.75357 6371 ft 263 kts 126°
2026-04-28 19:05 42.96278 8.77340 5935 ft 258 kts 128°
2026-04-28 19:06 42.94927 8.78853 5490 ft 256 kts 156°
2026-04-28 19:06 42.93190 8.79290 5126 ft 251 kts 179°
2026-04-28 19:06 42.91477 8.79272 4826 ft 245 kts 179°
2026-04-28 19:06 42.89782 8.79251 4593 ft 240 kts 179°
2026-04-28 19:07 42.88130 8.79242 4468 ft 234 kts 179°
2026-04-28 19:07 42.86544 8.79234 4386 ft 223 kts 179°
2026-04-28 19:07 42.85011 8.79226 4266 ft 216 kts 179°
2026-04-28 19:07 42.83507 8.79222 4137 ft 216 kts 179°
2026-04-28 19:08 42.82008 8.79220 3892 ft 217 kts 179°
2026-04-28 19:08 42.80515 8.79219 3769 ft 214 kts 179°
2026-04-28 19:08 42.79034 8.79218 3586 ft 211 kts 179°
2026-04-28 19:08 42.77562 8.79216 3279 ft 207 kts 179°
2026-04-28 19:09 42.76157 8.79220 3094 ft 198 kts 179°
2026-04-28 19:09 42.74820 8.79228 3009 ft 183 kts 178°
2026-04-28 19:09 42.73609 8.79235 2967 ft 167 kts 178°
2026-04-28 19:09 42.72489 8.79244 2938 ft 156 kts 178°
2026-04-28 19:10 42.71401 8.79257 2937 ft 156 kts 178°
2026-04-28 19:10 42.70325 8.79260 2966 ft 151 kts 179°
2026-04-28 19:10 42.69325 8.79255 2941 ft 141 kts 179°
2026-04-28 19:10 42.68338 8.79252 2789 ft 140 kts 179°
2026-04-28 19:11 42.67375 8.79254 2614 ft 139 kts 179°
2026-04-28 19:11 42.66403 8.79256 2435 ft 138 kts 178°
2026-04-28 19:11 42.65457 8.79261 2258 ft 137 kts 178°
2026-04-28 19:11 42.64498 8.79270 2076 ft 136 kts 177°
2026-04-28 19:12 42.63562 8.79280 1900 ft 136 kts 177°
2026-04-28 19:12 42.62615 8.79282 1721 ft 135 kts 178°
2026-04-28 19:12 42.61679 8.79283 1543 ft 135 kts 179°
2026-04-28 19:12 42.60739 8.79269 1363 ft 135 kts 179°
2026-04-28 19:13 42.59806 8.79266 1191 ft 134 kts 178°
2026-04-28 19:13 42.58861 8.79270 1063 ft 134 kts 178°
2026-04-28 19:13 42.57936 8.79302 896 ft 134 kts 176°
2026-04-28 19:13 42.57000 8.79314 723 ft 134 kts 179°
2026-04-28 19:14 42.56072 8.79299 522 ft 133 kts 179°
2026-04-28 19:14 42.55146 8.79296 353 ft 133 kts 179°
2026-04-28 19:14 42.54230 8.79295 154 ft 132 kts 180°
2026-04-28 19:14 42.53354 8.79298 132 ft 109 kts 180°
2026-04-28 19:15 42.52763 8.79301 173 ft 60 kts 181°
2026-04-28 19:15 42.52524 8.79302 190 ft 15 kts 180°
2026-04-28 19:15 42.52446 8.79290 195 ft 8 kts 224°
2026-04-28 19:15 42.52435 8.79239 195 ft 9 kts 267°
2026-04-28 19:16 42.52476 8.79159 193 ft 1 kts 346°
2026-04-28 19:16 42.52497 8.79128 191 ft 7 kts 300°
2026-04-28 19:16 42.52512 8.79093 190 ft 0 kts 300°